Regional Weather Roundup
Issued by NWS

Home | Current Version | Previous Version | Graphics & Text | Print | Product List | Glossary On
Versions: 1 2 3 4 5 6 7 8 9 10 11 12 13 14 15 16 17 18 19 20 21 22 23 24 25 26 27 28 29 30 31 32 33 34 35 36 37 38 39 40 41 42 43 44 45 46 47 48 49 50
000
ASUS43 KFSD 281302
RWRSD

WEATHER ROUNDUP FOR SOUTH DAKOTA
NATIONAL WEATHER SERVICE SIOUX FALLS SD
800 AM CDT TUE MAR 28 2017

NOTE: "FAIR" INDICATES FEW OR NO CLOUDS BELOW 12,000 FEET WITH NO
SIGNIFICANT WEATHER AND/OR OBSTRUCTIONS TO VISIBILITY.


SDZ001>005-009-010-012>017-281400-
NORTHWEST AND NORTH CENTRAL SOUTH DAKOTA

CITY           SKY/WX    TMP DP  RH WIND       PRES   REMARKS
BUFFALO          N/A     38  33  82 NE8       29.94R
FAITH            N/A     43  37  79 MISG      30.00R
MOBRIDGE       CLOUDY    37  30  75 VRB5      30.04R
$$

SDZ012>016-024>037-041>051-057-063-072>074-281400-
SOUTHWEST AND SOUTH CENTRAL SOUTH DAKOTA

CITY           SKY/WX    TMP DP  RH WIND       PRES   REMARKS
RAPID CTY ARPT CLOUDY    39  33  79 N10       29.96S
PIERRE         CLOUDY    41  36  82 E7        30.01R
CUSTER         CLOUDY    40  35  83 E6        29.96R
ELLSWORTH AFB  CLOUDY    40  34  79 CALM      29.97R
PHILIP         CLOUDY    44  39  82 E9        29.98R
PINE RIDGE     LGT RAIN  47  47 100 CALM      29.97R FOG
SPEARFISH      FAIR      39  36  87 W5        29.98R
WINNER         CLOUDY    46  43  89 SE6       30.03R
$$

SDZ004>011-016>023-039-040-281400-
NORTHEAST SOUTH DAKOTA

CITY           SKY/WX    TMP DP  RH WIND       PRES   REMARKS
ABERDEEN       CLOUDY    31  27  85 N7        30.10R WCI  24
WATERTOWN      CLOUDY    30  29  96 NE3       30.09R FOG
BROOKINGS      CLEAR     33  31  92 CALM      30.09R FOG
SISSETON         N/A     32  32 100 N9        30.12R WCI  24
$$

SDZ017-020-022-023-036>040-048>070-281400-
SOUTHEAST SOUTH DAKOTA

CITY           SKY/WX    TMP DP  RH WIND       PRES   REMARKS
SIOUX FALLS    FOG       32  31  96 NE5       30.09R VSB 3/4 WCI  27
HURON          PTCLDY    35  34  96 SE3       30.08R
CHAMBERLAIN    CLOUDY    42  41  96 E5        30.04R
MITCHELL       PTCLDY    33  33 100 CALM      30.08R FOG
YANKTON          N/A     37  36  93 CALM      30.09R VSB 3/4
$$

ABBREVIATIONS USED IN REMARKS
   TC - TEMPERATURE IN CELSIUS
  WCI - WIND CHILL INDEX
   HX - HEAT INDEX
  VSB - VISIBILITY




USA.gov is the U.S. government's official web portal to all federal, state and local government web resources and services.